CZ-2D R/B, 41858

Orbit data source: Space-Track

CZ-2D R/B, 41858 is space debris in SSO originally from a launch on Fri, 11 Nov 2016 UTC launched from the Jiuquan Satellite Launch Center, China (JSC). Debris objects in space refer to the collection of defunct objects orbiting the Earth. Examples of debris include non-operational satellites, rocket bodies, and fragments generated from explosions, collisions, or faulty payload assembly.

Loading next visibility...
Identifier
41858, 2016-068B
Orbit
SSO
Country
Flag of CNCN / PRC
Related business
Manufacturer
BWYIC
Mission
Spacecraft
Bus & Motor
CZ-2 STAGE 2, Unknown motor
Mass
4,006 kg wet, 4,006 kg dry
Launch date (UTC)
2016-11-11 (9 years ago)
Launch vehicle
Unknown
Launch site
Jiuquan Satellite Launch Center, China (JSC)
Object type
Payload
Rocket body
Debris
Shape & HBR
Cyl + 1 Sail, 4.5 m
Radar Cross Section
27.824 m², Large (>1 m²)

Expand to show TLE details & history
Last TLE update: 11 hours ago

TLE from 11 hours ago
0 CZ-2D R/B
1 41858U 16068B   25307.98331025  .00000213  00000-0  86284-4 0  9993
2 41858  98.6278 307.3956 0033971 126.9380 233.4926 14.37027193470628
Epoch: 2025-11-03T23:35Z
TLE epoch observation values (Epoch: 2025-11-03T23:35:58.005Z)
Latitude
-0.00001°
Longitude
-90.07295°
Altitude
785.777 km
Speed
7.453 km/s
True Right ascension
20h 29m 34s
True Declination
0° 00' 00"
Sunlit
Object was in daylight at epoch
Visualization orbit readout
Latitude
Unknown
Longitude
Unknown
Altitude
Unknown
Speed
Unknown
Apparent Right ascension
Unknown
Apparent Declination
Unknown
Sunlit
N/A
Visualization observer readout
Local Sidereal Time
06:56:22
Azimuth
Unknown
Elevation
Unknown
Doppler factor
Unknown
Orbital elements
Apogee altitude
789.737 km
Perigee altitude
741.202 km
Semi-major axis
7,143.606 km
Eccentricity
0.0034
Inclination
98.6278°
RAAN
307.3956°
Arg. of periapsis
126.938°
True anomaly
233.1805°
Mean anomaly
233.4926°
Eccentric anomaly
233.33647°
Mean motion
3.59474 °/min
Orbital period
100.15 mins
BSTAR
0.000086284
Loading maneuver chart data...
Computing Atmospheric mass density...
Loading historical data...
Loading historical data...
Loading historical data...
Loading historical data...
Loading historical data...
Loading historical data...
Loading historical data...

Documentation

Showing up to 5 results
|